Location: Boca do Mato
(22.9085°S, 43.2930°W)
Time: 22:26:20
(UTC+00:00)

Okean-O - Pass Details

Date: 14 July 2020
Orbit: 638 x 641 km, 98.2° (Epoch: 10 August)

Event Time Altitude Azimuth Distance (km) Brightness Sun altitude
Rises 09:04:48 0° 25° (NNE) 2,925 6.8 -7.0°
Reaches altitude 10° 09:07:02 10° 31° (NNE) 2,024 6.1 -6.5°
Maximum altitude 09:11:16 47° 104° (ESE) 848 3.8 -5.6°
Drops below altitude 10° 09:15:33 10° 178° (S) 2,048 5.0 -4.7°
Sets 09:17:50 0° 183° (S) 2,965 5.8 -4.2°
